Date String (YYYY-MM-DD hh:mm:ss) UTC,Instrument flags,Ambient pressure (hPa),Sample flow (lpm),Bypass flow (lpm),Sample temperature (°C),Ambient temperature (°C),ASC tube jacket temperature (°C),LED temperature (°C),Box temperature (°C),Sample RH (%),Span deviation,Mass concentration (μg/m³),Mass concentration (μg/m³),Mass concentration (μg/m³)
DateTimeUTC,F1_M11,P_M11,Q1_M11,Q2_M11,T1_M11,T2_M11,T3_M11,T4_M11,T5_M11,U1_M11,ZSPAN_M11,X0_M11,X2_M11,X1_M11
2022-06-19 16:00:00,,0824.5,5.00,0.00,29.5,28.4,00.0,38.3,31.5,27.4,0000.0,0009.76,0004.20,0003.11
2022-06-19 16:01:00,,0824.4,5.00,0.00,29.6,28.5,00.0,38.3,31.5,27.3,0000.0,0009.57,0004.15,0003.07
2022-06-19 16:02:00,,0824.4,5.00,0.00,29.6,28.6,00.0,38.3,31.6,27.3,0000.0,0009.42,0004.10,0003.03
2022-06-19 16:03:00,,0824.5,5.00,0.00,29.6,28.7,00.0,38.3,31.6,27.2,0000.0,0009.70,0004.09,0003.01
2022-06-19 16:04:00,,0824.4,5.00,0.00,29.7,28.6,00.0,38.4,31.6,27.0,0000.0,0009.79,0004.03,0002.97
2022-06-19 16:05:00,,0824.5,5.00,0.00,29.6,28.0,00.0,38.3,31.4,26.9,0000.0,0009.75,0004.01,0002.95
2022-06-19 16:06:00,,0824.4,5.01,0.00,29.6,27.5,00.0,38.3,31.3,27.2,0000.0,0009.62,0003.98,0002.93
2022-06-19 16:07:00,,0824.4,4.99,0.00,29.5,27.4,00.0,38.3,31.3,27.1,0000.0,0009.47,0003.93,0002.90
2022-06-19 16:08:00,,0824.5,5.01,0.00,29.5,27.5,00.0,38.3,31.3,27.3,0000.0,0009.29,0003.92,0002.86
2022-06-19 16:09:00,,0824.4,4.99,0.00,29.5,27.6,00.0,38.3,31.3,27.4,0000.0,0009.41,0003.94,0002.84
2022-06-19 16:10:00,,0824.5,4.99,0.00,29.4,27.8,00.0,38.3,31.3,27.3,0000.0,0009.38,0003.89,0002.80
2022-06-19 16:11:00,,0824.5,5.00,0.00,29.5,27.9,00.0,38.3,31.3,27.4,0000.0,0010.08,0003.90,0002.78
2022-06-19 16:12:00,,0824.5,5.01,0.00,29.5,28.1,00.0,38.3,31.4,27.5,0000.0,0010.12,0003.88,0002.75
2022-06-19 16:13:00,,0824.5,4.99,0.00,29.5,28.3,00.0,38.3,31.4,27.4,0000.0,0010.16,0003.88,0002.74
2022-06-19 16:14:00,,0824.4,5.00,0.00,29.5,28.4,00.0,38.3,31.5,27.2,0000.0,0009.91,0003.85,0002.72
2022-06-19 16:15:00,,0824.5,4.99,0.00,29.5,28.5,00.0,38.3,31.5,27.3,0000.0,0009.67,0003.84,0002.67
2022-06-19 16:16:00,,0824.5,5.00,0.00,29.6,28.6,00.0,38.3,31.6,27.3,0000.0,0009.53,0003.80,0002.63
2022-06-19 16:17:00,,0824.5,5.00,0.00,29.6,28.7,00.0,38.3,31.6,27.2,0000.0,0009.49,0003.76,0002.60
2022-06-19 16:18:00,,0824.4,5.00,0.00,29.6,28.3,00.0,38.3,31.5,27.2,0000.0,0009.76,0003.75,0002.57
2022-06-19 16:19:00,,0824.4,5.00,0.00,29.6,27.6,00.0,38.2,31.3,27.2,0000.0,0010.34,0003.74,0002.54
2022-06-19 16:20:00,,0824.4,5.01,0.00,29.5,27.4,00.0,38.2,31.3,27.4,0000.0,0010.31,0003.71,0002.50
2022-06-19 16:21:00,,0824.3,4.99,0.00,29.5,27.5,00.0,38.2,31.3,27.5,0000.0,0009.87,0003.69,0002.49
2022-06-19 16:22:00,,0824.3,5.00,0.00,29.5,27.6,00.0,38.2,31.3,27.3,0000.0,0008.80,0003.64,0002.47
2022-06-19 16:23:00,,0824.4,5.00,0.00,29.4,27.7,00.0,38.2,31.3,26.9,0000.0,0008.62,0003.61,0002.45
2022-06-19 16:24:00,,0824.4,5.00,0.00,29.4,27.9,00.0,38.2,31.4,26.3,0000.0,0008.56,0003.55,0002.39
2022-06-19 16:25:00,,0824.4,5.00,0.00,29.5,28.1,00.0,38.2,31.4,26.2,0000.0,0008.41,0003.49,0002.34
2022-06-19 16:26:00,,0824.5,5.00,0.00,29.5,28.2,00.0,38.3,31.4,26.3,0000.0,0008.17,0003.45,0002.30
2022-06-19 16:27:00,,0824.5,5.01,0.00,29.5,28.4,00.0,38.3,31.5,25.9,0000.0,0007.98,0003.38,0002.26
2022-06-19 16:28:00,,0824.4,4.99,0.00,29.5,28.5,00.0,38.3,31.5,25.7,0000.0,0008.06,0003.35,0002.23
2022-06-19 16:29:00,,0824.4,5.00,0.00,29.6,28.6,00.0,38.3,31.6,25.7,0000.0,0007.72,0003.30,0002.19
2022-06-19 16:30:00,,0824.4,5.00,0.00,29.6,28.3,00.0,38.3,31.5,25.6,0000.0,0006.82,0003.30,0002.18
2022-06-19 16:31:00,,0824.4,5.01,0.00,29.5,27.6,00.0,38.2,31.3,25.5,0000.0,0006.47,0003.25,0002.16
2022-06-19 16:32:00,,0824.4,4.99,0.00,29.5,27.3,00.0,38.2,31.2,25.5,0000.0,0006.27,0003.20,0002.12
2022-06-19 16:33:00,,0824.4,5.01,0.00,29.4,27.3,00.0,38.2,31.2,25.7,0000.0,0006.19,0003.17,0002.08
2022-06-19 16:34:00,,0824.4,5.01,0.00,29.4,27.4,00.0,38.2,31.2,25.9,0000.0,0006.08,0003.13,0002.05
2022-06-19 16:35:00,,0824.4,5.00,0.00,29.4,27.6,00.0,38.2,31.2,25.8,0000.0,0005.94,0003.13,0002.03
2022-06-19 16:36:00,,0824.4,5.00,0.00,29.4,27.8,00.0,38.2,31.3,25.9,0000.0,0006.02,0003.15,0002.02
2022-06-19 16:37:00,,0824.4,5.00,0.00,29.4,28.0,00.0,38.2,31.3,26.0,0000.0,0005.93,0003.13,0002.01
2022-06-19 16:38:00,,0824.4,5.00,0.00,29.4,28.1,00.0,38.2,31.4,25.8,0000.0,0006.00,0003.14,0002.02
2022-06-19 16:39:00,,0824.4,4.99,0.00,29.5,28.3,00.0,38.2,31.4,25.9,0000.0,0005.82,0003.13,0002.01
2022-06-19 16:40:00,,0824.4,5.00,0.00,29.5,28.4,00.0,38.2,31.5,25.8,0000.0,0005.65,0003.11,0001.98
2022-06-19 16:41:00,,0824.5,5.00,0.00,29.5,28.5,00.0,38.3,31.5,25.8,0000.0,0005.47,0003.03,0001.96
2022-06-19 16:42:00,,0824.4,5.00,0.00,29.5,28.5,00.0,38.3,31.5,25.6,0000.0,0005.35,0002.97,0001.95
2022-06-19 16:43:00,,0824.4,5.00,0.00,29.5,27.8,00.0,38.2,31.3,25.4,0000.0,0005.69,0002.96,0001.95
2022-06-19 16:44:00,,0824.5,5.00,0.00,29.4,27.4,00.0,38.2,31.2,25.4,0000.0,0006.05,0002.96,0001.93
2022-06-19 16:45:00,,0824.4,5.00,0.00,29.4,27.3,00.0,38.1,31.2,25.2,0000.0,0006.11,0002.97,0001.92
2022-06-19 16:46:00,,0824.4,5.00,0.00,29.4,27.4,00.0,38.1,31.2,25.3,0000.0,0005.89,0002.87,0001.90
2022-06-19 16:47:00,,0824.4,5.00,0.00,29.4,27.6,00.0,38.2,31.2,25.1,0000.0,0006.35,0002.76,0001.86
2022-06-19 16:48:00,,0824.4,4.99,0.00,29.4,27.8,00.0,38.2,31.2,25.3,0000.0,0006.90,0002.73,0001.84
2022-06-19 16:49:00,,0824.5,5.01,0.00,29.4,27.9,00.0,38.2,31.3,25.0,0000.0,0007.03,0002.74,0001.81
2022-06-19 16:50:00,,0824.4,5.00,0.00,29.4,28.1,00.0,38.2,31.3,24.9,0000.0,0006.94,0002.71,0001.79
2022-06-19 16:51:00,,0824.4,4.99,0.00,29.4,28.2,00.0,38.2,31.4,24.6,0000.0,0006.88,0002.67,0001.75
2022-06-19 16:52:00,,0824.4,5.00,0.00,29.5,28.4,00.0,38.2,31.4,24.5,0000.0,0006.72,0002.59,0001.71
2022-06-19 16:53:00,,0824.4,5.01,0.00,29.5,28.5,00.0,38.2,31.5,24.4,0000.0,0006.65,0002.55,0001.66
2022-06-19 16:54:00,,0824.3,5.00,0.00,29.5,28.5,00.0,38.2,31.5,24.4,0000.0,0006.22,0002.50,0001.62
2022-06-19 16:55:00,,0824.3,4.99,0.00,29.5,28.0,00.0,38.2,31.4,24.4,0000.0,0005.70,0002.45,0001.60
2022-06-19 16:56:00,,0824.3,5.01,0.00,29.4,27.4,00.0,38.1,31.2,24.4,0000.0,0005.70,0002.44,0001.59
2022-06-19 16:57:00,,0824.3,5.00,0.00,29.4,27.3,00.0,38.1,31.1,24.4,0000.0,0005.74,0002.44,0001.57
2022-06-19 16:58:00,,0824.3,4.99,0.00,29.3,27.3,00.0,38.1,31.1,24.3,0000.0,0005.01,0002.42,0001.56
2022-06-19 16:59:00,,0824.3,5.00,0.00,29.3,27.5,00.0,38.1,31.2,24.4,0000.0,0004.26,0002.36,0001.52
